Location: Palmerston North
(40.3500°S, 175.6170°E)
Time: 13:34:44
(UTC+13:00)

Gbstr 26 Del rocket - Pass Details

Date: 24 January 2019
Orbit: 493 x 1264 km, 51.8° (Epoch: 12 October)

Event Time Altitude Azimuth Distance (km) Brightness Sun altitude
Rises 23:34:29 0° 231° (SW) 2,737 7.5 -24.7°
Reaches altitude 10° 23:37:06 10° 216° (SW) 1,775 6.5 -24.9°
Maximum altitude 23:40:22 24° 160° (SSE) 1,074 4.7 -25.2°
Enters shadow 23:41:07 23° 141° (SE) 1,116 4.5 -25.3°
